This is the latest recevied weather packets stored in our database for station/object IW4DZV-13. If no packets are shown the sender has not sent any weather packets the latest 10 day(s).
| Time | Temp. | Humidity | Pressure | Rain* | Wind** | Luminosity | Snow |
|---|---|---|---|---|---|---|---|
| 1787836506 | 31.11° C | 61% | 1015 hPa | 0.25 mm | - | 503 W/m² | - |
| 1787835605 | 31.11° C | 61% | 1015.1 hPa | 0.25 mm | - | 478 W/m² | - |
| 1787834704 | 31.11° C | 60% | 1015.2 hPa | 0.25 mm | - | 540 W/m² | - |
| 1787829331 | 30.56° C | 64% | 1015.5 hPa | 0.25 mm | - | 548 W/m² | - |
| 1787828429 | 30° C | 70% | 1015.6 hPa | 0.25 mm | - | 613 W/m² | - |
| 1787827528 | 30° C | 64% | 1015.6 hPa | 0.25 mm | - | 522 W/m² | - |
| 1787826626 | 30° C | 66% | 1015.6 hPa | 0.25 mm | - | 737 W/m² | - |
| 1787825724 | 29.44° C | 68% | 1015.8 hPa | 0.25 mm | - | 663 W/m² | - |
| 1787824821 | 29.44° C | 71% | 1015.7 hPa | 0.25 mm | - | 638 W/m² | - |
| 1787823918 | 28.89° C | 70% | 1016 hPa | 0.25 mm | - | 633 W/m² | - |
| 1787823016 | 28.33° C | 72% | 1016 hPa | 0.25 mm | - | 628 W/m² | - |
| 1787822115 | 28.33° C | 73% | 1016.2 hPa | 0.25 mm | - | 633 W/m² | - |
| 1787821213 | 28.33° C | 74% | 1016.1 hPa | 0.25 mm | - | 413 W/m² | - |
| 1787820310 | 27.78° C | 76% | 1016.2 hPa | 0.25 mm | - | 438 W/m² | - |
| 1787819408 | 27.22° C | 78% | 1016.2 hPa | 0.25 mm | - | 290 W/m² | - |
| 1787818507 | 26.67° C | 80% | 1016.2 hPa | 0.25 mm | - | 454 W/m² | - |
| 1787817605 | 26.67° C | 79% | 1016.2 hPa | 0.25 mm | - | 149 W/m² | - |
| 1787816704 | 26.67° C | 81% | 1016.1 hPa | 0 mm | - | 446 W/m² | - |
| 1787815860 | 26.11° C | 82% | 1016 hPa | 0 mm | - | 383 W/m² | - |
| 1787814958 | 25.56° C | 82% | 1016 hPa | 0 mm | - | 255 W/m² | - |
| 1787814053 | 25° C | 86% | 1016.2 hPa | 0 mm | - | 283 W/m² | - |
| 1787813162 | 23.89° C | 89% | 1016.3 hPa | 0 mm | - | 267 W/m² | - |
| 1787812249 | 22.78° C | 91% | 1016.3 hPa | 0 mm | - | 190 W/m² | - |
| 1787811347 | 22.22° C | 92% | 1016.5 hPa | 0 mm | - | 127 W/m² | - |
| 1787810444 | 21.67° C | 92% | 1016.4 hPa | 0 mm | - | 67 W/m² | - |
* Rain since midnight (hover to see other rain measurements)
** Current wind speed in m/s (hover to see current wind gust speed)